Torna al catalogo

DELTA 1 DEB

AttivoSSO
NORAD 10870·DEBRIS·🇺🇸 United States

Lanciato Jul 29, 1976 da Vandenberg Space Force Base

Loading…

Prossimi Passaggi (prossime 24 ore)

TLE

AggiornatoSource: Space-Track

Epoca: Sep 14, 2026, 21:56 UTC

1 10870U 76077CY  26257.91410287  .00000080  00000-0  83021-3 0  9992
2 10870 101.7398 238.4316 0020050  22.4084   4.6191 12.48972570275067

Traccia DELTA 1 DEB in tempo reale con AllMySat

Download on the App Store